KB3KAV Weather Reports


Display with metric or nautical units.
time (UTC)temp
F
wind
direction
speed
MPH
gust
MPH
rain 1hr
in
rain 24hr
in
rain mn
in
humidity
%
barometer
mb
20260503025919 45 49 2.0 2.0 0.00 0.12 0.12 59 1042.3
20260503024920 45 86 0.0 0.0 0.00 0.12 0.12 61 1042.3
20260503023919 45 106 0.0 0.0 0.00 0.12 0.12 62 1042.4
20260503022919 44 105 1.0 1.0 0.00 0.12 0.12 65 1042.5
20260503021915 44 96 0.0 0.0 0.00 0.12 0.12 69 1042.3
20260503020915 45 96 0.0 0.0 0.00 0.12 0.12 68 1042.5
20260503015915 45 96 0.0 0.0 0.00 0.12 0.12 64 1042.3
20260503014914 46 96 0.0 0.0 0.00 0.12 0.12 65 1042.2
20260503013909 46 95 0.0 0.0 0.00 0.12 0.12 61 1042.0
20260503012909 46 96 0.0 0.0 0.00 0.12 0.12 61 1042.0
20260503011909 46 85 0.0 0.0 0.00 0.12 0.12 61 1041.9
20260503010909 47 84 0.0 0.0 0.00 0.12 0.12 57 1042.1
20260503005908 47 88 1.0 1.0 0.00 0.12 0.12 54 1041.9
20260503004908 47 10 3.0 3.0 0.00 0.12 0.12 54 1041.8
20260503003903 47 64 2.0 2.0 0.00 0.12 0.12 54 1041.6
20260503002902 47 295 3.0 3.0 0.00 0.12 0.12 53 1041.6
20260503001902 48 318 3.0 3.0 0.00 0.12 0.12 53 1041.5
20260503000856 48 32 3.0 3.0 0.00 0.12 0.12 52 1041.6
20260502235856 48 97 0.0 0.0 0.00 0.12 0.12 52 1041.4
20260502234856 48 109 2.0 2.0 0.00 0.12 0.12 50 1041.2
20260502233855 49 130 2.0 2.0 0.00 0.12 0.12 50 1041.2
20260502232854 49 62 1.0 2.0 0.00 0.12 0.12 49 1041.4
20260502231853 50 142 2.0 2.0 0.00 0.12 0.12 47 1041.0
20260502230849 50 34 2.0 2.0 0.00 0.12 0.12 48 1040.9
20260502225849 50 64 2.0 2.0 0.00 0.12 0.12 45 1041.0
20260502224849 50 55 1.0 2.0 0.00 0.12 0.12 46 1041.0
20260502223849 50 85 1.0 1.0 0.00 0.12 0.12 45 1040.8
20260502222844 50 263 4.0 5.0 0.00 0.12 0.12 45 1040.9
20260502221843 51 61 3.0 3.0 0.00 0.12 0.12 43 1040.8
20260502220843 51 73 3.0 3.0 0.00 0.12 0.12 43 1040.6
20260502215841 51 62 2.0 2.0 0.00 0.12 0.12 43 1041.0
20260502214840 51 143 2.0 2.0 0.00 0.12 0.12 43 1040.8
20260502213840 52 141 2.0 2.0 0.00 0.12 0.12 39 1040.6
20260502212836 52 255 3.0 3.0 0.00 0.12 0.12 40 1040.5
20260502211836 52 151 1.0 2.0 0.00 0.12 0.12 39 1040.4
20260502210835 52 282 3.0 3.0 0.00 0.12 0.12 40 1040.4
20260502205835 52 53 2.0 2.0 0.00 0.12 0.12 38 1040.5
20260502204834 52 169 4.0 5.0 0.00 0.12 0.12 39 1040.4
20260502203834 52 33 2.0 2.0 0.00 0.12 0.12 40 1040.4
20260502202831 52 102 1.0 1.0 0.00 0.12 0.12 39 1040.4
20260502201827 52 69 1.0 1.0 0.00 0.12 0.12 38 1040.5
20260502200825 52 118 1.0 2.0 0.00 0.12 0.12 37 1040.9
20260502195825 52 155 2.0 2.0 0.00 0.12 0.12 40 1040.7
20260502194824 53 257 5.0 6.0 0.00 0.12 0.12 39 1041.0
20260502193822 53 148 2.0 3.0 0.00 0.12 0.12 37 1040.9
20260502192820 52 143 3.0 3.0 0.00 0.12 0.12 39 1041.5
20260502191815 51 123 1.0 2.0 0.00 0.12 0.12 39 1041.5
20260502190810 52 216 4.0 5.0 0.00 0.12 0.12 39 1041.6
20260502185808 53 105 0.0 1.0 0.00 0.12 0.12 38 1041.8
20260502184808 52 141 1.0 2.0 0.00 0.12 0.12 38 1041.7
20260502183806 53 47 3.0 3.0 0.00 0.12 0.12 40 1041.7
20260502182803 53 125 3.0 3.0 0.00 0.12 0.12 37 1041.8
20260502181801 53 104 3.0 3.0 0.00 0.12 0.12 37 1041.9
20260502180758 52 96 1.0 1.0 0.00 0.12 0.12 38 1041.9
20260502163743 51 138 1.0 2.0 0.00 0.12 0.12 41 1042.2
20260502162743 51 335 3.0 3.0 0.00 0.12 0.12 42 1042.1
20260502161743 51 97 4.0 6.0 0.00 0.12 0.12 43 1042.2
20260502160743 50 185 3.0 3.0 0.00 0.12 0.12 44 1042.3
20260502151727 50 90 1.0 2.0 0.00 0.12 0.12 43 1042.3
20260502150721 50 279 5.0 6.0 0.00 0.12 0.12 41 1042.3
20260502130704 47 115 1.0 2.0 0.00 0.12 0.12 67 1043.2
20260502123653 43 32 2.0 2.0 0.00 0.12 0.12 74 1043.4
20260502122652 45 113 1.0 1.0 0.00 0.12 0.12 81 1043.2
20260502121647 44 106 1.0 1.0 0.00 0.12 0.12 81 1043.2
20260502120647 42 110 1.0 2.0 0.00 0.12 0.12 87 1042.9
20260502115641 41 100 0.0 0.0 0.00 0.12 0.12 95 1043.1
20260502114639 41 81 1.0 1.0 0.00 0.12 0.12 95 1042.9
20260502113634 41 103 0.0 0.0 0.00 0.12 0.12 95 1043.2
20260502112630 40 90 0.0 0.0 0.00 0.12 0.12 95 1043.2
20260502111630 39 91 0.0 0.0 0.00 0.12 0.12 95 1043.4
20260502110626 39 77 0.0 0.0 0.00 0.12 0.12 95 1043.4
20260502105620 39 91 0.0 0.0 0.00 0.12 0.12 95 1043.1
20260502104620 39 100 1.0 1.0 0.00 0.12 0.12 95 1043.1
20260502103615 39 98 0.0 0.0 0.00 0.12 0.12 95 1042.8
20260502102615 39 100 1.0 1.0 0.00 0.12 0.12 95 1042.6
20260502101616 39 86 1.0 1.0 0.00 0.12 0.12 95 1042.4
20260502100612 39 85 1.0 1.0 0.00 0.12 0.12 95 1042.5
20260502090558 40 83 1.0 1.0 0.00 0.12 0.12 95 1041.9
20260502071533 45 101 0.0 0.0 0.00 0.03 0.03 95 1040.5
20260502070529 45 101 0.0 0.0 0.00 0.03 0.03 95 1040.4
20260502065525 45 101 0.0 0.0 0.00 0.03 0.03 95 1040.6
20260502064521 45 102 0.0 0.0 0.00 0.03 0.03 95 1040.5
20260502063521 45 100 0.0 0.0 0.00 0.03 0.03 95 1040.6
20260502062521 45 100 0.0 0.0 0.00 0.03 0.03 95 1040.7
20260502061517 45 100 0.0 0.0 0.00 0.03 0.03 95 1040.7
20260502060515 45 100 0.0 0.0 0.00 0.03 0.03 95 1041.0
20260502055516 45 100 0.0 0.0 0.00 0.03 0.03 95 1040.8
20260502054513 45 100 0.0 0.0 0.00 0.03 0.03 95 1041.3
20260502053512 45 100 0.0 0.0 0.00 0.03 0.03 95 1041.3
20260502052508 45 100 0.0 0.0 0.00 0.03 0.03 95 1041.2
20260502051504 45 100 0.0 0.0 0.00 0.03 0.03 95 1041.0
20260502050503 45 100 0.0 0.0 0.00 0.03 0.03 95 1041.3
20260502045503 45 103 0.0 0.0 0.05 0.03 0.03 95 1041.5
20260502044502 45 103 0.0 0.0 0.00 0.02 0.02 95 1041.2
20260502043456 45 104 0.0 0.0 0.07 0.02 0.02 95 1041.1
20260502042453 45 104 0.0 0.0 0.00 0.01 0.01 95 1041.3
20260502041448 45 104 0.0 0.0 0.00 0.01 0.01 95 1041.2
20260502040447 45 104 0.0 0.0 0.05 0.01 0.01 95 1041.6
20260502035445 45 104 0.0 0.0 0.07 0.10 0.10 95 1041.3
20260502034442 46 104 0.0 0.0 0.00 0.09 0.09 95 1041.1
20260502033443 46 103 0.0 0.0 0.12 0.09 0.09 95 1041.4
20260502032441 46 104 0.0 0.0 0.12 0.08 0.08 95 1041.2
20260502031437 46 104 0.0 0.0 0.00 0.06 0.06 95 1041.4